Regional Weather Roundup
Issued by NWS Goodland, KS

Home | Current Version | Previous Version | Graphics & Text | Print | Product List | Glossary On
Versions: 1 2 3 4 5 6 7 8 9 10 11 12 13 14 15 16 17 18 19 20 21 22 23 24 25 26 27 28 29 30 31 32 33 34 35 36 37 38 39 40 41 42 43 44 45 46 47 48 49 50
575
ASUS43 KGLD 081508
RWRGLD

GOODLAND FORECAST AREA HOURLY WEATHER ROUNDUP
NATIONAL WEATHER SERVICE GOODLAND KS
800 AM MST MON FEB 08 2016

...OFFICIAL OBSERVATIONS...

CITY           SKY/WX    TMP DP  RH WIND       PRES   REMARKS
GOODLAND KS    CLOUDY    24  12  60 NW16      30.34R WCI  11
HILL CITY KS   SUNNY     30  15  53 NW24G32   30.31R WCI  16
IMPERIAL NEB   CLOUDY    26   9  48 NW21      30.33R WCI  12
MCCOOK NEB     SUNNY     26  13  57 NW23      30.32R WCI  11
AKRON CO       CLOUDY    21  14  74 W14       30.37R WCI   8
BURLINGTON CO  CLOUDY    23  13  65 NW21      30.36R WCI   8
LIMON CO       CLOUDY    14   9  80 W9        30.37S
$$

...UNOFFICIAL OBSERVATIONS...

CITY           SKY/WX    TMP DP  RH WIND       PRES   REMARKS
COLBY KS       SUNNY     28  16  59 NW22      30.34S WCI  15
GOVE KS          N/A     30  32 100 MISG        N/A
LENORA KS        N/A     28  32 100 MISG        N/A
NORTON KS      SUNNY     28  14  54 NW22      30.29R WCI  15
KIT CARSON CO    N/A     26  15  63 MISG        N/A
$$




USA.gov is the U.S. government's official web portal to all federal, state and local government web resources and services.